This is the latest recevied weather packets stored in our database for station/object W4GAP. If no packets are shown the sender has not sent any weather packets the latest 10 day(s).
| Time | Temp. | Humidity | Pressure | Rain* | Wind** | Luminosity | Snow |
|---|---|---|---|---|---|---|---|
| 1777384046 | 13.33° C | 98% | 1021.7 hPa | 0 mm | - | 4 W/m² | - |
| 1777383742 | 13.33° C | 98% | 1021.8 hPa | 0 mm | - | 5 W/m² | - |
| 1777383438 | 13.33° C | 98% | 1021.5 hPa | 0 mm | - | 4 W/m² | - |
| 1777383134 | 13.33° C | 98% | 1022.1 hPa | 0 mm | - | 3 W/m² | - |
| 1777382831 | 13.33° C | 98% | 1021.8 hPa | 0 mm | - | 3 W/m² | - |
| 1777382527 | 13.33° C | 98% | 1020.7 hPa | 0 mm | - | 3 W/m² | - |
| 1777382222 | 13.33° C | 98% | 1020.5 hPa | 0 mm | - | 8 W/m² | - |
| 1777381920 | 12.78° C | 98% | 1020.9 hPa | 0 mm | - | 3 W/m² | - |
| 1777381619 | 12.78° C | 97% | 1020.7 hPa | 0 mm | - | 2 W/m² | - |
| 1777381316 | 12.78° C | 97% | 1020.7 hPa | 0 mm | - | 3 W/m² | - |
| 1777381012 | 12.78° C | 97% | 1019.7 hPa | 0 mm | - | 1 W/m² | - |
| 1777380708 | 13.33° C | 97% | 1019.7 hPa | 0 mm | - | 0 W/m² | - |
| 1777380405 | 13.33° C | 97% | 1020.8 hPa | 0 mm | - | 0 W/m² | - |
| 1777380101 | 13.33° C | 96% | 1021.3 hPa | 0 mm | - | 0 W/m² | - |
| 1777379798 | 12.78° C | 96% | 1021.1 hPa | 0 mm | - | 0 W/m² | - |
| 1777379493 | 13.33° C | 96% | 1020.6 hPa | 0 mm | - | 0 W/m² | - |
| 1777379188 | 13.33° C | 95% | 1020.7 hPa | 0 mm | - | 0 W/m² | - |
| 1777378884 | 13.33° C | 95% | 1021.8 hPa | 0 mm | - | 0 W/m² | - |
| 1777378580 | 13.33° C | 94% | 1022 hPa | 0 mm | - | 0 W/m² | - |
| 1777378276 | 13.33° C | 93% | 1022.1 hPa | 0 mm | - | 0 W/m² | - |
| 1777377974 | 13.33° C | 92% | 1021.5 hPa | 0 mm | - | 0 W/m² | - |
| 1777377669 | 13.33° C | 92% | 1022 hPa | 0 mm | - | 0 W/m² | - |
| 1777377365 | 13.33° C | 92% | 1021.1 hPa | 0 mm | - | 0 W/m² | - |
| 1777377061 | 13.89° C | 93% | 1021.8 hPa | 0 mm | - | 0 W/m² | - |
| 1777376758 | 13.89° C | 93% | 1020.8 hPa | 0 mm | - | 0 W/m² | - |
* Rain latest hour (hover to see other rain measurements)
** Current wind speed in m/s (hover to see current wind gust speed)